Location: Saluda
(35.2377°N, 82.3468°W)
Time: 05:39:00
(UTC+00:00)

Vanguard 2 - Pass Details

Date: 03 October 2022
Orbit: 553 x 2933 km, 32.9° (Epoch: 04 December)

Event Time Altitude Azimuth Distance (km) Brightness Sun altitude
Rises 21:05:18 0° 272° (W) 5,466 12.9 23.8°
Reaches altitude 10° 21:08:26 10° 272° (W) 4,726 12.9 23.3°
Maximum altitude 21:23:03 80° 188° (S) 2,824 10.8 20.5°
Drops below altitude 10° 21:41:08 10° 105° (ESE) 5,674 11.5 17.0°
Sets 21:45:18 0° 104° (ESE) 6,565 11.8 16.2°
